Location: Marquette
(46.5440°N, 87.3950°W)
Time: 21:43:44
(UTC-04:00)

Daily predictions for brighter satellites

Satellite Brightness Start Highest point End
(mag) Time Altitude Azimuth Time Altitude Azimuth Time Altitude Azimuth
SL-19 R/B 4.4 19:58:43 10° SSE 20:04:22 85° ENE 20:10:25 10° NNW
CZ-4C R/B 2.5 20:02:53 10° SW 20:08:18 76° NW 20:14:29 10° NE
ALOS 3.3 20:06:52 10° ESE 20:10:40 25° ENE 20:14:29 10° N
Helios 1B rocket 3.4 20:07:26 10° NE 20:10:54 25° E 20:14:20 10° SSE
Cosmos 2237 Rocket 2.6 20:05:43 10° SW 20:11:23 69° WNW 20:17:05 10° NNE
Meteor 1-29 4.4 20:08:52 10° NE 20:11:26 19° E 20:13:58 10° SE
Cosmos 2034 Rocket 4.5 20:06:40 10° SSE 20:12:22 38° E 20:18:08 10° NNE
ATLAS 3B R/B 3.8 20:05:21 10° WSW 20:12:43 51° NW 20:19:50 10° NE
Cosmos 1076 Rocket 3.7 20:09:39 10° N 20:13:54 52° ENE 20:18:08 10° SSE
Cosmos 1464 Rocket 4.1 20:08:07 10° SSE 20:14:06 51° E 20:20:04 10° NNE
ATLAS 5 CENTAUR R/B 2.6 20:10:47 10° S 20:15:01 32° ESE 20:19:34 10° NE
SeaSat 1 4.2 20:15:46 10° E 20:16:09 10° E 20:16:31 10° ESE
Cosmos 1766 3.2 20:18:53 10° S 20:22:49 69° E 20:26:48 10° NNE
Cosmos-2242 3.8 20:19:09 10° SSE 20:22:59 31° E 20:26:50 10° NNE
Cosmos 1452 Rocket 3.5 20:19:33 10° NNW 20:24:48 65° ENE 20:30:01 10° SSE
CZ-4B DEB 4.0 20:24:00 10° SE 20:26:42 24° ENE 20:29:25 10° NNE
SKYMED 2 4.5 20:27:12 10° N 20:31:27 53° WNW 20:35:40 10° SSW
SL-16 R/B 2.2 20:25:47 10° SSW 20:31:28 81° ESE 20:37:12 10° NNE
NOSS 3-2 (A) 3.5 20:25:31 10° SSW 20:31:34 69° ESE 20:38:13 10° NE
ATLAS CENTAUR R/B 3.8 20:28:16 10° WNW 20:31:37 23° WSW 20:34:46 10° SSW
FREGAT/IRIS 2.8 20:29:26 10° S 20:32:32 80° W 20:35:38 10° NNW
Cosmos 1500 Rocket 4.5 20:32:18 10° NNE 20:36:10 28° ENE 20:39:25 13° SE
Cosmos 1408 Rocket 3.4 20:32:01 10° N 20:36:24 78° E 20:40:43 10° SSE
CZ-2D R/B 4.1 20:33:52 11° SE 20:37:04 30° ENE 20:40:31 10° N
USA 238 DEB 4.3 20:31:11 10° SW 20:38:08 60° NW 20:45:08 10° NE
USA 238 4.3 20:31:16 10° SW 20:38:14 61° NW 20:45:14 10° NE
TELKOM 3 3.0 20:37:27 10° WNW 20:40:26 80° NNE 20:41:33 27° ESE
Cosmos 1544 3.7 20:39:54 10° SSE 20:43:18 35° E 20:46:45 10° NNE
METEOR-M 4.2 20:38:25 10° SSE 20:43:46 86° WSW 20:49:10 10° NNW
Cosmos 1378 4.2 20:40:16 10° NNW 20:43:54 47° W 20:47:28 10° SSW
Cosmos 1420 Rocket 4.1 20:41:39 10° NNW 20:46:54 58° ENE 20:52:00 11° SE
Cosmos 1953 2.2 20:44:27 10° S 20:48:23 62° E 20:52:19 10° NNE
Cosmos 2219 Rocket 4.3 20:44:28 10° WSW 20:49:13 27° NW 20:54:01 10° N
Meteor 1-28 Rocket 3.7 20:46:46 10° N 20:50:28 63° WNW 20:54:07 10° SSW
H-2A R/B 3.1 20:50:10 16° SE 20:53:02 44° ENE 20:56:44 10° N
Cosmos 1805 3.1 20:49:14 10° S 20:53:09 70° E 20:57:05 10° NNE
FENGYUN 3A 3.6 20:49:45 10° SSE 20:55:02 64° ENE 21:00:23 10° N
Resurs 1-3 3.6 20:52:11 10° SSE 20:56:35 89° SW 21:01:01 10° NNW
ASTEX 1 3.6 20:52:06 10° NNE 20:56:50 45° E 21:01:31 10° SSE
Resurs 01 Rocket 1.9 20:53:03 10° S 20:57:29 70° WSW 21:01:57 10° NNW
Cosmos 1346 2.9 20:56:36 10° N 20:59:35 75° ENE 21:01:23 22° SSE
Cosmos 1743 Rocket 3.5 21:00:20 10° N 21:04:48 76° E 21:09:13 10° SSE
Spot 2 Rocket 4.0 21:01:15 10° S 21:06:12 60° WSW 21:11:13 10° NNW
CENTAUR R/B 3.2 21:01:06 10° S 21:06:13 29° ESE 21:11:50 10° NE
ERBS 4.2 21:03:31 10° NNW 21:06:16 21° NNE 21:07:17 18° NE
Cosmos 1269 Rocket 4.1 21:01:54 10° S 21:06:59 51° ESE 21:12:07 10° NNE
Helios 1A 3.6 21:04:11 10° S 21:08:19 58° WSW 21:12:30 10° NNW
Cosmos 1048 Rocket 4.2 21:03:52 10° S 21:08:54 46° ESE 21:13:54 10° NNE
NOSS 3-2 (C) 3.5 21:03:44 10° SW 21:09:53 87° NW 21:16:42 10° NE
Cosmos 2369 Rocket 2.4 21:06:02 10° NNW 21:11:35 52° ENE 21:14:17 28° ESE
BREEZE-M DEB (TANK) 4.4 20:56:51 10° WSW 21:11:40 86° SSE 21:14:54 23° ENE
Cosmos 1943 3.8 21:09:56 10° SSE 21:14:52 32° ESE 21:19:48 10° NE
Cosmos 1943 Rocket 3.2 21:10:23 10° N 21:15:14 28° NE 21:16:39 25° ENE
Cosmos 1470 2.9 21:13:51 27° SSE 21:15:38 49° E 21:19:24 10° NNE
Envisat 3.8 21:16:19 30° E 21:17:08 31° ENE 21:21:35 10° N
Cosmos 724 4.2 21:12:41 10° SSW 21:18:37 77° ESE 21:24:44 10° NE
Cosmos 1603 3.6 21:13:06 10° SSW 21:18:49 76° ESE 21:24:35 10° NNE
Nadezhda 4 Rocket 4.0 21:13:04 10° N 21:19:23 85° W 21:25:37 10° S
GP-B 3.2 21:18:09 10° NNE 21:22:30 50° E 21:23:33 40° SE
CZ-4B DEB 4.4 21:21:34 41° SSE 21:22:43 81° ENE 21:26:21 10° N
SPOT 5 4.5 21:24:59 16° NE 21:24:59 16° NE 21:26:51 10° NNE
Cosmos 1733 3.4 21:24:29 48° ENE 21:24:29 48° ENE 21:27:52 10° NNE
Cosmos 1655 Rocket 4.3 21:18:34 10° N 21:24:30 43° ENE 21:26:29 33° ESE
Cosmos 1092 Rocket 3.9 21:20:09 10° N 21:26:25 82° E 21:32:26 11° S
Cosmos 1674 3.0 21:30:57 10° NNW 21:34:49 67° W 21:36:37 30° S
USA 215 3.2 21:33:36 11° NE 21:40:00 90° SE 21:46:33 10° SW
Cosmos 2026 Rocket 3.9 21:34:49 10° N 21:40:52 61° ENE 21:42:57 40° SE
Exosat Rocket 4.4 21:34:46 10° NNW 21:41:10 69° ENE 21:45:29 32° SE
Cosmos 1634 Rocket 3.9 21:38:06 10° S 21:44:18 73° E 21:50:30 10° NNE
Helios 1B rocket 4.3 21:42:35 10° N 21:46:14 31° WNW 21:49:52 10° SW
Meteor 1-11 4.2 21:40:33 10° N 21:46:20 64° ENE 21:47:39 50° SE
H-2A R/B 3.6 21:48:55 25° NE 21:48:55 25° NE 21:51:30 10° N
Cosmos 1805 Rocket 4.5 21:43:24 10° N 21:46:30 35° NE 21:46:30 35° NE
ALOS 3.5 21:43:32 10° SSW 21:47:55 40° W 21:52:21 10° NNW
Meteor 1-16 Rocket 4.1 21:50:29 56° E 21:50:29 56° E 21:55:28 10° NNE
SeaSat 1 2.3 21:49:29 10° NNE 21:54:27 71° ESE 21:59:22 10° SSW
ERS-1 Rocket 2.8 21:55:08 69° ESE 21:55:34 74° ENE 22:00:37 10° N
YAOGAN 11 4.1 21:57:08 67° NNE 21:57:08 67° NNE 22:00:57 10° NNW
Cosmos 1939 Rocket 3.7 21:58:49 42° N 21:58:49 42° N 22:01:36 10° N
CZ-4C R/B 4.3 21:53:15 10° WNW 21:57:56 25° NNW 22:03:07 10° NNE
Cosmos 1110 Rocket 3.9 21:52:52 10° NNW 21:58:12 75° ENE 21:58:36 71° ESE
Cosmos 1328 4.1 21:55:00 10° NNW 21:58:32 65° NW 21:58:32 65° NW
ATLAS 5 CENTAUR R/B 2.9 21:54:49 10° WSW 21:59:31 45° NW 22:04:41 10° NNE
Cosmos 2195 Rocket 4.5 21:56:16 10° N 22:02:37 84° W 22:05:32 35° S
SL-14 R/B 4.5 22:05:08 10° N 22:07:41 38° N 22:07:41 38° N
Cosmos 2151 3.5 22:05:58 10° NNW 22:09:57 57° W 22:09:57 57° W
Cosmos 2058 4.0 22:13:41 10° NNW 22:16:27 41° NNW 22:16:27 41° NNW
Meteor 2-20 4.3 22:15:19 10° N 22:21:31 78° E 22:21:33 78° E
ARGOS 4.2 22:24:28 33° NNE 22:24:28 33° NNE 22:27:56 10° N
SL-24 R/B - RUBIN 2 4.4 22:21:53 10° NW 22:28:38 82° SW 22:28:58 79° SSW
Terra 4.2 22:31:26 13° NNE 22:31:26 13° NNE 22:32:05 10° NNE
Cosmos 1331 Rocket 4.3 22:27:00 10° NNW 22:31:52 64° W 22:31:52 64° W
Cosmos 2369 Rocket 3.8 22:50:37 10° NW 22:55:17 27° WSW 22:56:06 26° WSW
Envisat 4.3 22:56:31 37° W 22:56:31 37° W 23:00:47 10° NNW
CENTAUR R/B 2.9 22:50:08 10° SW 22:56:19 65° NW 23:03:21 10° NE
Cosmos 1943 4.2 22:53:24 10° SW 22:58:46 44° NW 23:04:09 10° NNE
Cosmos 1943 Rocket 3.0 22:53:49 10° NW 22:58:12 47° WNW 22:58:12 47° WNW
H-2A R/B 4.0 23:03:02 22° N 23:03:02 22° N 23:04:54 10° N
USA 215 4.1 23:20:58 37° NNE 23:22:41 44° NNW 23:28:47 10° W
